Regional Weather Roundup
Issued by NWS

Home | Current Version | Previous Version | Text Only | Print | Product List | Glossary Off
Versions: 1 2 3 4 5 6 7 8 9 10 11 12 13 14 15 16 17 18 19 20 21 22 23 24 25 26 27 28 29 30 31 32 33 34 35 36 37 38 39 40 41 42 43 44 45 46 47 48 49 50

000
ASUS43 KIND 060259
RWRIN

WEATHER ROUNDUP FOR INDIANA
NATIONAL WEATHER SERVICE INDIANAPOLIS IN
1100 PM EDT THU MAY 05 2016

NOTE: "FAIR" INDICATES FEW OR NO CLOUDS BELOW 12,000 FEET WITH NO
SIGNIFICANT WEATHER AND/OR OBSTRUCTIONS TO VISIBILITY.

* - STATION DOES NOT REPORT WEATHER SUCH AS PRECIPITATION OR FOG.

+ - STATION NOT QUALITY CONTROLLED BY THE NATIONAL WEATHER SERVICE.
    USE DATA WITH CAUTION...ESPECIALLY DEWPOINT AND RELATIVE
    HUMIDITY OBSERVATIONS.

INZ001>003-010>013-019-020-060400-
NORTHWEST INDIANA

CITY           SKY/WX    TMP DP  RH WIND       PRES   REMARKS
GARY /AIRPORT/ PTCLDY    45  45 100 CALM      30.00R
RENSSELAER +   CLEAR     50  43  76 NW5       29.99R

$$

LMZ046-743>745-060400-
SOUTHERN LAKE MICHIGAN

STATION/POSITION TIME  TEMP    WIND        PRES    WAVE
                       AIR SEA DIR/SP/G            HT
                 (UTC) (F)     (DEG/KT/KT) (MB)    (FT)
BURNS HARBOR     0240   47     320/  3/  4 1016.3R
MICHIGAN CITY    0200   46      10/  3/  3   N/A

$$

INZ004-005-014>016-021>024-060400-
NORTH CENTRAL INDIANA

CITY           SKY/WX    TMP DP  RH WIND       PRES   REMARKS
GOSHEN         CLEAR     48  40  73 N7        29.96R
SOUTH BEND     CLEAR     42  37  82 NW5       29.98R

$$

INZ006>009-017-018-025>027-060400-
NORTHEAST INDIANA

CITY           SKY/WX    TMP DP  RH WIND       PRES   REMARKS
ANGOLA *+        N/A     54  43  66 NW7       29.95R
FORT WAYNE     PTCLDY    54  42  64 NW10      29.94R

$$

INZ028-029-035-036-043>045-051>053-060400-
WEST CENTRAL INDIANA

CITY           SKY/WX    TMP DP  RH WIND       PRES   REMARKS
CRAWFORDSVL +  CLEAR     50  44  80 N6        29.98R
GREENCASTLE +  CLEAR     54  45  71 N8        29.98R
LAFAYETTE      CLEAR     48  41  76 CALM      29.98R
TERRE HAUTE    CLEAR     54  41  61 N5        29.98R

$$

INZ030>032-037>040-046>048-054>057-064-065-060400-
CENTRAL INDIANA

CITY           SKY/WX    TMP DP  RH WIND       PRES   REMARKS
INDIANAPOLIS   PTCLDY    53  43  68 N14       29.95R
-EAGLE CREEK   CLEAR     55  44  66 N13       29.95R
KOKOMO *+      CLEAR     52  41  66 N9        29.96R
SHELBYVILLE    CLEAR     55  45  68 N10       29.93R

$$

INZ033-034-041-042-049-050-058-059-060400-
EAST CENTRAL INDIANA

CITY           SKY/WX    TMP DP  RH WIND       PRES   REMARKS
MUNCIE         PTCLDY    55  44  66 N12       29.94R

$$

INZ060-061-067>069-081>083-085>088-060400-
SOUTHWEST INDIANA

CITY           SKY/WX    TMP DP  RH WIND       PRES   REMARKS
EVANSVILLE     CLEAR     48  46  93 W3        29.98R
HUNTINGBURG *+ MOCLDY    52  45  76 W5        29.97R

$$

INZ062-063-066-070>080-084-089>092-060400-
SOUTH CENTRAL AND SOUTHEAST INDIANA

CITY           SKY/WX    TMP DP  RH WIND       PRES   REMARKS
BLOOMINGTON    CLEAR     49  45  86 NW3       29.96R
MADISON *+     PTCLDY    52  45  76 W5        29.94R
SEYMOUR +      PTCLDY    55  46  71 NW7       29.94

$$




USA.gov is the U.S. government's official web portal to all federal, state and local government web resources and services.